Stations météo

réclame
Mon MeteoGroup
London/Heathrow Intl, Grande-Bretagne (3772): Température de l'air & dewpoint: 05.12.2018 16:00:00 - 11.12.2018 16:00:00 (GMT)London/Heathrow Intl, Grande-Bretagne (3772): Vitesse du vent & gusts: 05.12.2018 16:00:00 - 11.12.2018 16:00:00 (GMT)London/Heathrow Intl, Grande-Bretagne (3772): Direction du vent: 05.12.2018 16:00:00 - 11.12.2018 16:00:00 (GMT)London/Heathrow Intl, Grande-Bretagne (3772): reduced air pressure: 05.12.2018 16:00:00 - 11.12.2018 16:00:00 (GMT)London/Heathrow Intl, Grande-Bretagne (3772): visibility: 05.12.2018 16:00:00 - 11.12.2018 16:00:00 (GMT)London/Heathrow Intl, Grande-Bretagne (3772): Ensoleillement: 05.12.2018 16:00:00 - 11.12.2018 16:00:00 (GMT)London/Heathrow Intl, Grande-Bretagne (3772): Quantités de précipitations: 05.12.2018 16:00:00 - 11.12.2018 16:00:00 (GMT)
Date & Time tt [°C] td [°C] ff [km/h] ff [knt] fx [km/h] fx [knt] dd ppp [hPa] vv [km] sd [min] rr [mm]
11.12.2018 16:00:00 8,0 4,0 9 5 - - SSE - 10 - -
11.12.2018 15:00:00 8,4 3,2 11 6 - - SSE 1023,8 10 36 -
11.12.2018 14:00:00 9,1 4,3 9 5 - - SSE 1024,2 10 54 0,0
11.12.2018 13:00:00 8,5 4,5 8 4 - - ESE 1024,7 23 60 0,0
11.12.2018 12:00:00 7,7 4,3 8 4 - - ESE 1024,9 19 60 0,0
11.12.2018 11:00:00 6,8 4,3 4 2 - - ESE 1025,6 13 60 0,0
11.12.2018 10:00:00 4,4 3,7 4 2 - - NW 1026,1 10 30 0,0
11.12.2018 09:00:00 3,4 3,1 5 3 - - - 1026,0 9 0 0,0
11.12.2018 08:00:00 2,5 2,1 8 4 - - SSE 1026,1 10 0 0,0
11.12.2018 07:00:00 2,9 2,6 4 2 - - - 1026,2 9 0 0,0
11.12.2018 06:00:00 3,2 3,0 2 1 - - - 1026,2 9 0 0,0
11.12.2018 05:00:00 3,0 2,7 5 3 - - - 1026,7 9 0 0,0
11.12.2018 04:00:00 1,9 1,3 2 1 - - SSW 1026,6 8 0 0,0
11.12.2018 03:00:00 2,9 2,3 5 3 - - S 1026,6 10 0 0,0
11.12.2018 02:00:00 4,1 3,0 4 2 - - - 1027,0 10 0 0,0
11.12.2018 01:00:00 5,2 3,8 5 3 - - WNW 1027,5 10 0 0,0
11.12.2018 00:00:00 5,8 3,8 8 4 - - W 1027,8 10 - 0,0
10.12.2018 23:00:00 7,1 4,3 13 7 - - W 1027,7 10 0 0,0
10.12.2018 22:00:00 7,3 4,6 9 5 - - W 1027,9 10 0 0,0
10.12.2018 21:00:00 7,5 4,7 11 6 - - W 1027,8 10 0 0,0
10.12.2018 20:00:00 7,8 4,6 13 7 - - W 1027,9 10 0 0,0
10.12.2018 19:00:00 7,9 4,7 13 7 - - W 1028,0 10 0 0,0
10.12.2018 18:00:00 8,0 4,5 11 6 - - W 1028,0 10 0 0,0
10.12.2018 17:00:00 8,8 4,3 11 6 - - WNW 1028,2 10 0 0,0
10.12.2018 16:00:00 9,1 4,4 8 4 - - WNW 1027,9 10 0 0,0
10.12.2018 15:00:00 9,3 4,6 11 6 - - WNW 1027,6 10 0 0,0
10.12.2018 14:00:00 8,9 4,5 13 7 - - W 1027,4 10 0 0,0
10.12.2018 13:00:00 8,7 4,5 15 8 - - WNW 1027,8 10 0 0,0
10.12.2018 12:00:00 8,7 4,8 15 8 - - W 1027,7 10 0 0,0
10.12.2018 11:00:00 8,2 4,7 18 10 - - WNW 1028,0 22 0 0,0
10.12.2018 10:00:00 7,8 4,7 15 8 - - W 1027,7 10 0 0,0
10.12.2018 09:00:00 7,1 4,8 11 6 - - W 1027,0 10 0 0,0
10.12.2018 08:00:00 6,3 4,3 15 8 - - W 1026,3 10 0 0,0
10.12.2018 07:00:00 6,8 4,5 18 10 - - W 1025,8 10 0 0,0
10.12.2018 06:00:00 7,0 4,7 16 9 - - W 1025,6 10 0 0,0
10.12.2018 05:00:00 6,9 5,1 15 8 - - W 1025,3 10 0 0,0
10.12.2018 04:00:00 6,0 4,2 15 8 - - W 1024,5 10 0 0,0
10.12.2018 03:00:00 7,1 4,9 18 10 - - W 1024,3 10 0 0,0
10.12.2018 02:00:00 6,1 4,7 11 6 - - W 1023,9 10 0 0,0
10.12.2018 01:00:00 5,4 4,3 15 8 - - W 1023,5 10 0 0,0
10.12.2018 00:00:00 4,8 3,6 9 5 - - W 1022,9 10 - 0,0
09.12.2018 23:00:00 6,1 4,3 15 8 - - W 1022,2 10 0 0,0
09.12.2018 22:00:00 7,1 4,2 15 8 - - W 1021,5 10 0 0,0
09.12.2018 21:00:00 7,8 4,6 9 5 - - WNW 1020,7 10 0 0,0
09.12.2018 20:00:00 8,2 4,7 15 8 - - WNW 1020,2 40 0 0,0
09.12.2018 19:00:00 8,4 4,6 13 7 - - W 1019,1 50 0 0,0
09.12.2018 18:00:00 8,2 4,9 15 8 - - W 1018,1 10 0 0,0
09.12.2018 17:00:00 9,2 5,3 13 7 - - WNW 1017,0 10 0 0,0
09.12.2018 16:00:00 9,9 5,1 15 8 - - NW 1015,7 10 0 0,0
09.12.2018 15:00:00 10,3 4,9 18 10 50 27 NW 1013,8 10 30 0,0
09.12.2018 14:00:00 10,4 5,2 21 11 46 25 WNW 1012,1 50 42 0,0
09.12.2018 13:00:00 10,6 4,8 22 12 - - NW 1010,8 10 54 0,0
09.12.2018 12:00:00 10,3 5,8 21 11 - - WNW 1009,7 10 54 0,0
09.12.2018 11:00:00 9,8 6,6 18 10 - - WNW 1008,0 10 18 0,6
09.12.2018 10:00:00 9,3 7,5 18 10 - - NW 1006,3 5 0 0,6
09.12.2018 09:00:00 9,5 7,0 24 13 - - W 1004,6 10 0 0,4
09.12.2018 08:00:00 9,8 6,4 34 18 54 29 W 1003,1 15 0 0,0
09.12.2018 07:00:00 10,2 6,0 39 21 57 31 W 1001,1 10 0 0,0
09.12.2018 06:00:00 10,3 5,6 34 18 61 33 W 1000,4 10 0 0,0
09.12.2018 05:00:00 9,7 5,7 41 22 59 32 WSW 999,9 15 0 0,0
09.12.2018 04:00:00 9,2 5,4 31 17 50 27 WSW 1000,0 10 0 0,0
09.12.2018 03:00:00 8,9 5,3 34 18 52 28 WSW 1000,1 10 0 0,0
09.12.2018 02:00:00 9,1 5,1 31 17 57 31 W 999,8 10 0 0,0
09.12.2018 01:00:00 8,7 5,1 35 19 52 28 W 999,7 10 0 0,0
09.12.2018 00:00:00 8,5 5,2 31 17 52 28 WSW 999,3 10 - 0,0
08.12.2018 23:00:00 8,8 5,7 29 16 59 32 W 999,0 10 0 0,0
08.12.2018 22:00:00 9,0 5,6 34 18 50 27 W 999,1 10 0 0,0
08.12.2018 21:00:00 9,0 5,7 35 19 52 28 W 998,8 15 0 0,0
08.12.2018 20:00:00 8,9 6,5 29 16 70 38 W 998,6 10 0 0,2
08.12.2018 19:00:00 9,5 7,5 39 21 63 34 W 998,3 2,9 0 0,6
08.12.2018 18:00:00 10,5 6,6 41 22 61 33 W 997,7 9 0 0,2
08.12.2018 17:00:00 10,7 7,3 41 22 63 34 W 998,5 15 0 0,2
08.12.2018 16:00:00 11,8 8,5 29 16 54 29 WSW 999,0 10 0 0,0
08.12.2018 15:00:00 12,0 9,5 41 22 63 34 WSW 999,9 10 0 0,0
08.12.2018 14:00:00 11,8 8,6 31 17 - - SW 1001,2 26 0 0,0
08.12.2018 13:00:00 11,3 7,4 29 16 46 25 SW 1003,0 30 0 0,0
08.12.2018 12:00:00 10,8 6,5 31 17 48 26 WSW 1004,3 10 0 0,0
08.12.2018 11:00:00 10,6 5,3 31 17 46 25 WSW 1005,5 10 36 0,0
08.12.2018 10:00:00 10,1 5,4 28 15 54 29 WSW 1005,7 10 0 0,0
08.12.2018 09:00:00 9,1 4,6 39 21 61 33 W 1005,9 10 0 0,0
08.12.2018 08:00:00 8,7 4,2 37 20 57 31 W 1005,3 10 0 0,0
08.12.2018 07:00:00 9,0 4,1 37 20 63 34 W 1005,0 10 0 0,0
08.12.2018 06:00:00 9,0 4,3 42 23 63 34 W 1004,2 10 0 0,0
08.12.2018 05:00:00 9,1 5,2 28 15 50 27 WSW 1004,3 10 0 0,0
08.12.2018 04:00:00 8,7 5,6 29 16 48 26 WSW 1004,2 10 0 0,0
08.12.2018 03:00:00 8,5 5,3 29 16 50 27 WSW 1004,8 16 0 0,0
08.12.2018 02:00:00 8,0 4,8 35 19 50 27 WSW 1004,7 13 0 0,0
08.12.2018 01:00:00 7,8 4,5 26 14 52 28 WSW 1004,7 10 0 0,0
08.12.2018 00:00:00 7,4 4,3 31 17 50 27 WSW 1005,0 10 - 0,0
07.12.2018 23:00:00 7,3 3,7 28 15 - - WSW 1004,9 10 0 0,0
07.12.2018 22:00:00 7,0 3,4 28 15 52 28 WSW 1005,3 10 0 0,0
07.12.2018 21:00:00 6,9 3,7 26 14 - - WSW 1005,1 10 0 0,0
07.12.2018 20:00:00 6,9 3,5 31 17 50 27 WSW 1005,0 10 0 0,0
07.12.2018 19:00:00 7,5 3,3 31 17 50 27 WSW 1004,7 10 0 0,0
07.12.2018 18:00:00 7,5 2,7 31 17 54 29 WSW 1004,0 10 0 0,0
07.12.2018 17:00:00 7,7 2,5 28 15 - - W 1003,3 10 0 0,0
07.12.2018 16:00:00 8,6 3,6 28 15 52 28 W 1002,3 10 0 0,0
07.12.2018 15:00:00 9,6 3,4 37 20 50 27 W 1001,5 10 24 0,0
07.12.2018 14:00:00 10,1 4,9 21 11 - - WNW 1000,8 10 36 0,0
07.12.2018 13:00:00 9,1 4,3 29 16 54 29 WNW 1000,5 22 6 0,4
07.12.2018 12:00:00 10,2 8,3 28 15 - - W 999,6 12 0 0,2
07.12.2018 11:00:00 9,9 8,1 21 11 57 31 W 999,2 10 0 0,4
07.12.2018 10:00:00 11,9 10,4 50 27 65 35 WSW 999,4 10 0 2,6
07.12.2018 09:00:00 12,3 11,3 26 14 46 25 SSW 999,7 6 0 1,2
07.12.2018 08:00:00 12,4 11,4 31 17 54 29 SSW 1001,2 7 0 2,4
07.12.2018 07:00:00 12,5 11,4 31 17 57 31 SW 1002,3 7 0 0,2
07.12.2018 06:00:00 12,9 11,1 31 17 57 31 SW 1003,6 10 0 0,0
07.12.2018 05:00:00 13,0 11,5 28 15 50 27 SW 1005,1 10 0 0,0
07.12.2018 04:00:00 12,7 11,9 28 15 52 28 SW 1006,7 8 0 0,0
07.12.2018 03:00:00 12,9 11,9 24 13 - - SW 1007,8 10 0 0,0
07.12.2018 02:00:00 12,9 12,2 24 13 - - SSW 1008,9 40 0 0,2
07.12.2018 01:00:00 12,8 12,2 16 9 - - SW 1010,2 3,5 0 0,0
07.12.2018 00:00:00 13,1 11,9 16 9 50 27 SW 1011,0 10 - 0,0
06.12.2018 23:00:00 13,1 11,7 22 12 - - SW 1011,8 10 0 0,0
06.12.2018 22:00:00 13,0 11,7 16 9 - - SW 1012,4 10 0 0,0
06.12.2018 21:00:00 13,0 11,8 21 11 - - SW 1012,8 10 0 0,0
06.12.2018 20:00:00 13,0 11,6 22 12 - - SW 1013,3 10 0 0,0
06.12.2018 19:00:00 12,7 11,5 21 11 - - SW 1013,6 10 0 0,2
06.12.2018 18:00:00 12,5 11,3 24 13 - - SW 1013,3 9 0 0,0
06.12.2018 17:00:00 12,8 11,0 22 12 - - SW 1013,4 10 0 0,0
06.12.2018 16:00:00 13,0 10,7 26 14 - - SW 1014,0 26 0 0,0
06.12.2018 15:00:00 12,8 9,6 22 12 - - SW 1013,8 10 0 0,0
06.12.2018 14:00:00 12,8 9,8 22 12 - - SW 1014,0 10 0 0,0
06.12.2018 13:00:00 12,8 10,6 24 13 - - WSW 1014,2 10 0 0,0
06.12.2018 12:00:00 12,9 10,9 24 13 - - WSW 1014,8 45 0 0,0
06.12.2018 11:00:00 12,2 10,5 22 12 - - WSW 1015,3 10 0 0,0
06.12.2018 10:00:00 12,0 10,1 18 10 - - WSW 1015,1 10 0 0,0
06.12.2018 09:00:00 11,6 9,8 16 9 - - WSW 1014,9 10 0 0,0
06.12.2018 08:00:00 11,4 9,6 16 9 - - WSW 1014,4 10 0 0,0
06.12.2018 07:00:00 11,0 9,7 15 8 - - SW 1014,2 10 0 0,0
06.12.2018 06:00:00 10,6 9,7 11 6 - - SSW 1014,0 10 0 0,0
06.12.2018 05:00:00 10,5 9,7 13 7 - - SW 1014,2 10 0 0,0
06.12.2018 04:00:00 10,5 9,6 8 4 - - SW 1013,0 10 0 0,0
06.12.2018 03:00:00 10,0 9,4 15 8 - - WSW 1013,7 10 0 0,0
06.12.2018 02:00:00 9,8 9,1 11 6 - - SW 1012,6 10 0 0,0
06.12.2018 01:00:00 10,8 9,6 11 6 - - W 1011,8 10 0 0,0
06.12.2018 00:00:00 11,6 9,9 18 10 - - WSW 1011,4 10 - 0,0
05.12.2018 23:00:00 11,9 10,7 11 6 - - W 1010,9 10 0 0,0
05.12.2018 22:00:00 12,2 11,2 18 10 - - W 1010,2 21 0 0,0
05.12.2018 21:00:00 12,5 11,6 16 9 - - SW 1009,7 16 0 0,0
05.12.2018 20:00:00 12,6 11,5 11 6 - - SW 1009,7 24 0 0,0
05.12.2018 19:00:00 12,4 11,5 15 8 - - SSW 1009,4 22 0 0,0
05.12.2018 18:00:00 12,1 11,4 15 8 - - S 1009,1 10 0 0,2
05.12.2018 17:00:00 11,9 11,2 18 10 - - S 1009,1 10 0 0,4
05.12.2018 16:00:00 12,0 10,8 21 11 - - S 1009,5 10 0 0,2

tt = Température de l'air
td = dewpoint
ff = Vitesse du vent
fx = gusts
dd = Direction du vent
ppp = reduced air pressure
vv = visibility
sd = Ensoleillement
rr = Quantités de précipitations

stations d'obs. à proximité